Reading, PA

9:13 PM EST on November 18, 2019 (GMT -0500)
Reading Regional-Spaatz

Weather History for KRDG - July, 2019

Change the Weather History Date:

Wednesday, July 17, 2019

  Actual Average Record
Temperature  
Mean Temperature 83 °F 75 °F  
Max Temperature 94 °F 85 °F 102 °F (1988)
Min Temperature 71 °F 65 °F 51 °F (1974)
Degree Days  
Heating Degree Days 0 0  
Month to date heating degree days 0 0  
Since 1 June heating degree days 16 24  
Since 1 July heating degree days 0 0  
Cooling Degree Days 18 10  
Month to date cooling degree days 223 167  
Year to date cooling degree days 533 416  
Since 1 June cooling degree days 428 356  
Growing Degree Days 32 (Base 50)    
Moisture  
Dew Point 75 °F    
Average Humidity 78    
Maximum Humidity 100    
Minimum Humidity 56    
Precipitation  
Precipitation 1.17 in 0.16 in 3.23 in (2005)
Month to date precipitation 4.56 2.45  
Year to date precipitation 35.92 23.25  
Sea Level Pressure  
Sea Level Pressure 29.91 in    
Wind  
Wind Speed 4 mph (SW)    
Max Wind Speed 22 mph    
Max Gust Speed 31 mph    
Visibility 8 miles    
Events Fog , Rain , Thunderstorm    
T = Trace of Precipitation, MM = Missing Value Source: NWS Daily Summary

Daily Weather History Graph

Daily Weather History Graph

Search for Another Location

Airport or City:

Astronomy

Jul. 17, 2019 Rise Set
Actual Time 5:47 AM EDT 8:31 PM EDT
Civil Twilight 5:15 AM EDT 9:03 PM EDT
Nautical Twilight 4:35 AM EDT 9:43 PM EDT
Astronomical Twilight 3:50 AM EDT 10:28 PM EDT
Moon 9:18 PM EDT (7/17) 6:18 AM EDT (7/17)
Length of Visible Light 15h 47m
Length of Day
14h 43m
Waxing Gibbous, 99% of the Moon is Illuminated
Jul 17
Waxing Gibbous
Jul 24
Last Quarter
Jul 31
New
Aug 7
First Quarter
Aug 15
Full

Hourly Weather History & Observations

Time (EDT) Temp. Heat Index Dew Point Humidity Pressure Visibility Wind Dir Wind Speed Gust Speed Precip Events Conditions
12:54 AM 73.0 °F - 73.0 °F 100% 30.02 in 10.0 mi Calm Calm - N/A   Clear
1:54 AM 73.0 °F - 73.0 °F 100% 30.01 in 10.0 mi Calm Calm - N/A   Clear
2:54 AM 73.0 °F - 73.0 °F 100% 29.99 in 10.0 mi Calm Calm - N/A   Clear
3:54 AM 73.0 °F - 73.0 °F 100% 29.97 in 10.0 mi Calm Calm - N/A   Clear
4:54 AM 72.0 °F - 72.0 °F 100% 29.97 in 10.0 mi Calm Calm - N/A   Clear
5:54 AM 72.0 °F - 72.0 °F 100% 29.98 in 10.0 mi Calm Calm - N/A   Clear
6:54 AM 73.9 °F - 73.0 °F 97% 29.99 in 10.0 mi SSE 4.6 mph - N/A   Partly Cloudy
7:54 AM 77.0 °F - 73.9 °F 90% 29.99 in 10.0 mi South 3.5 mph - N/A   Scattered Clouds
8:54 AM 82.0 °F 89.4 °F 75.9 °F 82% 29.99 in 10.0 mi South 3.5 mph - N/A   Clear
9:54 AM 84.0 °F 93.7 °F 77.0 °F 79% 29.98 in 10.0 mi WSW 6.9 mph - N/A   Clear
10:54 AM 87.1 °F 99.8 °F 78.1 °F 74% 29.97 in 10.0 mi Calm Calm - N/A   Clear
11:54 AM 89.1 °F 104.4 °F 79.0 °F 72% 29.96 in 10.0 mi WNW 5.8 mph - N/A   Scattered Clouds
12:54 PM 89.1 °F 103.2 °F 78.1 °F 70% 29.94 in 10.0 mi West 6.9 mph - N/A   Scattered Clouds
1:54 PM 91.0 °F 104.2 °F 77.0 °F 63% 29.92 in 10.0 mi SSW 8.1 mph - N/A   Partly Cloudy
2:54 PM 93.0 °F 104.6 °F 75.0 °F 56% 29.89 in 10.0 mi SW 11.5 mph - N/A   Scattered Clouds
3:54 PM 93.0 °F 104.6 °F 75.0 °F 56% 29.87 in 10.0 mi South 6.9 mph - N/A   Scattered Clouds
4:51 PM 89.6 °F 98.2 °F 73.4 °F 59% 29.85 in 2.0 mi WSW 13.8 mph 18.4 mph 0.01 in Rain , Thunderstorm Light Rain
4:54 PM 86.0 °F 93.8 °F 73.9 °F 67% 29.85 in 2.0 mi WNW 19.6 mph 31.1 mph 0.04 in Rain , Thunderstorm Heavy Rain
5:05 PM 82.0 °F 87.9 °F 73.9 °F 76% 29.84 in 10.0 mi NNW 6.9 mph - 0.02 in Rain Light Rain
5:25 PM 82.9 °F 90.2 °F 75.0 °F 77% 29.84 in 10.0 mi NW 3.5 mph - 0.02 in Thunderstorm Mostly Cloudy
5:40 PM 81.0 °F 87.9 °F 77.0 °F 88% 29.84 in 10.0 mi North 5.8 mph - 0.02 in   Mostly Cloudy
5:54 PM 81.0 °F 88.6 °F 78.1 °F 91% 29.85 in 10.0 mi NE 3.5 mph - 0.02 in   Mostly Cloudy
6:27 PM 81.0 °F 87.3 °F 75.9 °F 85% 29.82 in 10.0 mi NNE 8.1 mph - N/A Thunderstorm Thunderstorm
6:34 PM 82.0 °F 89.4 °F 75.9 °F 82% 29.84 in 1.0 mi NW 12.7 mph - 0.04 in Rain , Thunderstorm Light Thunderstorms and Rain
6:35 PM 82.0 °F 89.4 °F 75.9 °F 82% 29.84 in 0.5 mi NW 12.7 mph - 0.04 in Rain , Thunderstorm Light Thunderstorms and Rain
6:50 PM 78.8 °F - 77.0 °F 94% 29.87 in 0.5 mi WSW 10.4 mph - 0.41 in Fog , Rain , Thunderstorm Heavy Thunderstorms and Rain
6:54 PM 78.1 °F - 77.0 °F 96% 29.89 in 0.5 mi SW 8.1 mph - 0.49 in Fog , Rain , Thunderstorm Heavy Thunderstorms and Rain
7:08 PM 75.0 °F - 72.0 °F 90% 29.88 in 0.5 mi SSE 9.2 mph 18.4 mph 0.57 in Fog , Rain , Thunderstorm Heavy Thunderstorms and Rain
7:17 PM 75.0 °F - 75.0 °F 100% 29.89 in 5.0 mi SSE 12.7 mph 21.9 mph 0.59 in Rain , Thunderstorm Light Thunderstorms and Rain
7:46 PM 75.0 °F - 75.0 °F 100% 29.90 in 5.0 mi SSE 6.9 mph - 0.59 in Thunderstorm Overcast
7:54 PM 75.0 °F - 73.9 °F 96% 29.91 in 8.0 mi SSW 9.2 mph - 0.59 in Rain , Thunderstorm Light Rain
8:17 PM 75.0 °F - 75.0 °F 100% 29.89 in 8.0 mi South 6.9 mph - 0.02 in Rain Light Rain
8:52 PM 75.2 °F - 73.4 °F 94% 29.88 in 10.0 mi SSW 4.6 mph - 0.03 in   Mostly Cloudy
8:54 PM 75.0 °F - 73.9 °F 96% 29.89 in 10.0 mi SSW 3.5 mph - 0.03 in   Mostly Cloudy
9:54 PM 73.9 °F - 73.9 °F 100% 29.90 in 10.0 mi Calm Calm - N/A   Mostly Cloudy
10:54 PM 73.9 °F - 73.9 °F 100% 29.89 in 10.0 mi Calm Calm - N/A   Partly Cloudy
11:54 PM 73.9 °F - 73.9 °F 100% 29.90 in 10.0 mi SE 3.5 mph - N/A   Clear